www.pogodaiklimat.ru

Погода и климат >> Архив погоды >> Россия >> Ямало-Ненецкий АО >> Марресаля


АРХИВ ПОГОДЫ в Марресале

Время (UTC), дата Ветер
(напр.,м/с)
 
Видим.   Явления Облачность Т
(С)
Тd
(С)
f
(%)
Тe
(С)
Тes
(С)
Комфортность P
(гПа)
Po
(гПа)
Тmin
(С)
Tmax
(С)
R
(мм)
R24
(мм)
S
(см)
21 9.06 СЗ 7 4000 м дымка 10/10 480 м
[Sc]
-0.1 -0.1 100 -8 -8 1010.1 1006.9
00 10.06 СЗ 3
{10}
4000 м дымка 9/9 500 м
[Sc]
-1.6 -1.6 100 -7 -7 1011.3 1008.1
03 10.06 СЗ 4 4000 м дымка 4/3 600 м
[Cu Sc Ci fib]
+0.4 -0.0 97 -5 -3 1012.1 1008.9 -1.7 12
06 10.06 З 6 4000 м дымка 3/3 600 м
[Cu Sc Ac trans]
+0.7 +0.4 98 -6 -3 1012.6 1009.4
09 10.06 З 5 4000 м дымка 4/3 600 м
[Cu Sc Ci fib]
+0.9 +0.4 96 -5 -2 1013.0 1009.8
12 10.06 З 4 20 км 6/6 600 м
[Cu Sc]
+0.6 -0.3 94 -5 -3 1013.7 1010.5
15 10.06 СЗ 3 20 км 10/10 600 м
[Sc]
+0.1 -0.8 94 -5 -5 1013.3 1010.0 +1.0
18 10.06 СЗ 2 4000 м дымка 9/8 570 м
[Sc Ac cast]
-1.2 -1.4 99 -5 -5 1012.4 1009.2
21 10.06 СВ 1 4000 м дымка 10/10 480 м
[Sc]
-1.2 -1.6 97 -4 -4 1011.9 1008.6
00 11.06 СВ 1 4000 м дымка 10/10 540 м
[Sc]
-1.2 -1.8 96 -4 -4 1011.1 1007.9
03 11.06 СВ 1 20 км 9/3 600 м
[Sc Ac trans Ci fib]
-0.8 -1.8 93 -3 -1 1010.0 1006.8 -1.5 8
06 11.06 СЗ 2 4000 м дымка 8/3 200 м
[St Ac trans Ci]
-1.1 -1.1 100 -5 -1 1009.5 1006.3
09 11.06 СЗ 3 20 км 8/3 600 м
[Cu med, cong Ac trans Ci]
+0.2 -0.6 94 -5 -1 1008.9 1005.7
12 11.06 СЗ 3 20 км 8/3 600 м
[Cu med, cong Ac As Ci fib]
+1.0 -0.1 92 -4 -2 1008.5 1005.3
15 11.06 СЗ 3 10 км 4/3 600 м
[Sc Ac trans]
+1.0 -1.4 84 -3 -3 1007.7 1004.5 +1.3
18 11.06 З 2 20 км 4/1 600 м
[Sc Ac trans Ci fib]
-0.5 -1.9 90 -4 -4 1006.6 1003.4
21 11.06 З 2 4000 м дымка 8/0
[Ac As]
-1.4 -1.5 99 -6 -5 1005.1 1001.9
00 12.06 З 4 4000 м дымка 10/4 600 м
[Sc Ac As]
-0.9 -1.5 96 -7 -7 1003.5 1000.3
03 12.06 З 3 2000 м слаб. ливневой снег 10/10 540 м
[Cb cap]
-0.2 -0.5 98 -5 -5 1002.1 998.9 -1.7 0.0 6
06 12.06 ЮЗ 4 1000 м дымка {ливн. осадки} 10/10 240 м
[St]
0.0 -0.5 96 -6 -6 1000.9 997.7
09 12.06 З 4 2000 м слаб. ливневой снег 10/10 540 м
[Cb cap]
+0.6 +0.6 100 -5 -5 1000.5 997.3
12 12.06 З 4 500 м ливневой снег 10/10 300 м
[Cb cap]
+0.2 +0.2 100 -6 -6 999.8 996.6
15 12.06 З 4 2000 м слаб. ливневой снег 9/9 480 м
[Cb cap]
-0.1 -0.1 100 -6 -6 999.0 995.9 +0.7
18 12.06 СЗ 5 2000 м слаб. ливневой снег 10/10 630 м
[Cb cap]
-0.9 -0.9 100 -8 -8 998.4 995.2
21 12.06 СЗ 7 2000 м слаб. ливневой снег 10/10 800 м
[Cb cap]
-1.7 -1.8 99 -10 -10 997.9 994.7
00 13.06 СЗ 8-10
{10}
4000 м дымка {ливн. осадки} 10/10 660 м
[Sc]
-0.9 -0.9 100 -9 -9 996.9 993.7
03 13.06 СЗ 8-11
{13}
4000 м дымка 10/10 870 м
[Sc]
-1.2 -1.2 100 -9 -9 996.5 993.3 -2.4 1 6
06 13.06 СЗ 8-11
{12}
4000 м дымка 9/9 600 м
[Cb cap]
-0.4 -0.5 99 -8 -8 997.0 993.8
09 13.06 СЗ 8
{11}
4000 м дымка 9/4 300 м
[Cb cap Ac cast]
+0.4 +0.3 99 -7 -7 997.7 994.5
12 13.06 СЗ 11-14
{14}
10 км 10/10 1440 м
[Cb cap]
+0.2 -0.4 96 -8 -8 997.8 994.6
15 13.06 СЗ 13-16
{16}
500 м ливневой снег 10/10 360 м
[Cb cap]
-0.3 -0.3 100 -10 -10 996.9 993.8 +1.0 0.9
18 13.06 СЗ 16-20
{21}
500 м ливневой снег 10/10 330 м
[Cb cap]
-0.4 -0.4 100 -11 -11 996.3 993.2
21 13.06 С 15-19
{21}
500 м ливневой снег 10/10 540 м
[Cb cap]
-1.1 -1.1 100 -11 -11 996.9 993.7
00 14.06 СЗ 15-18
{20}
4000 м дымка {ливн. осадки} 10/4 300 м
[Cb cap Ac und]
-1.2 -1.2 100 -11 -11 997.4 994.2
03 14.06 СЗ 12-16
{18}
4000 м дымка 10/6 500 м
[Cb cap Ac As]
-1.1 -1.1 100 -11 -11 998.3 995.2 -1.3 0.8 12
06 14.06 СЗ 10-13
{16}
2000 м слаб. ливневой снег 10/10 570 м
[Cb cap]
-0.3 -0.4 99 -9 -9 998.9 995.7
09 14.06 СЗ 9-12
{13}
4000 м дымка {ливн. осадки} 9/9 480 м
[Cb cap]
-0.3 -0.3 100 -9 -8 999.2 996.0
12 14.06 СЗ 9-11
{13}
4000 м дымка {ливн. осадки} 8/0
[As op Cs]
+0.5 -0.2 95 -7 -7 999.4 996.2
15 14.06 З 6
{11}
4000 м дымка 3/1 600 м
[Sc Ac trans Ci fib]
+0.2 +0.2 100 -7 -6 998.8 995.7 +0.6 0.0
18 14.06 З 7 4000 м дымка 10/10 570 м
[Cb cap]
-0.5 -0.5 100 -8 -8 997.6 994.5
21 14.06 З 5 4000 м дымка 10/10 600 м
[Sc]
-0.6 -0.6 100 -7 -7 996.4 993.2
00 15.06 З 3 4000 м дымка 10/10 300 м
[St]
-0.6 -0.6 100 -6 -6 995.7 992.5
03 15.06 ЮЗ 3 500 м туман ?/? -0.2 -0.2 100 -5 -5 995.1 991.9 -1.2 9
06 15.06 З 2 2000 м дымка {туман} 10/10 300 м
[St]
+0.3 +0.3 100 -4 -4 995.5 992.3
09 15.06 ЮЗ 2 2000 м в посл. час туман 10/10 360 м
[Cb cap]
+0.8 +0.8 100 -3 -3 996.2 993.0
12 15.06 З 2 2000 м дымка {туман} 10/10 270 м
[St]
+0.6 +0.6 100 -3 -3 997.0 993.8
15 15.06 З 3 1000 м дымка 10/10 270 м
[St]
-0.2 -0.2 100 -5 -5 997.7 994.5 +0.9
18 15.06 ЮЗ 4 2000 м дымка 10/10 300 м
[St]
-0.2 -0.2 100 -6 -6 997.8 994.6
21 15.06 ЮЗ 3 4000 м дымка 9/8 1470 м
[Sc Ac As]
-0.3 -0.3 100 -5 -5 997.2 994.0
00 16.06 Ю 4 4000 м дымка 10/8 900 м
[Sc Ac As]
0.0 0.0 100 -6 -6 996.5 993.4
03 16.06 Ю 5 4000 м дымка 10/4 600 м
[Sc Ac As]
+0.7 +0.7 100 -6 -5 996.2 993.0 -0.5 3
06 16.06 Ю 8 4000 м дымка 6/3 600 м
[Sc Ac trans Cs]
+1.6 +1.1 96 -6 -5 995.7 992.6
09 16.06 Ю 8-10
{11}
2000 м слаб. ливневой снег 9/9 480 м
[Cb cap]
+2.3 +2.0 98 -5 -5 995.3 992.2
12 16.06 Ю 7
{12}
4000 м дымка {ливн. осадки} 8/4 600 м
[Sc Ac trans]
+2.7 +2.4 98 -4 -3 995.2 992.1
15 16.06 Ю 8-10
{10}
4000 м слаб. дождь 10/0 1050 м
[As op]
+2.3 +2.2 99 -5 -5 994.6 991.5 +3.8 0.0
18 16.06 ЮВ 10-13
{13}
4000 м слаб. дождь 10/0 930 м
[As op]
+2.1 +1.9 99 -6 -6 993.8 990.7

 

Местоположение метеостанции Марресаля (Ямало-Ненецкий АО, Россия): широта 69.71 долгота 66.80 высота над уровнем моря 26 м.

В архиве по умолчанию представлена погода в Марресале за последнюю неделю. Архивные данные за месяц целиком и за предыдущие месяцы, начиная с января 2011 года, Вы можете получить, выбрав интересующий диапазон дат из раскрывающегося списка и нажав кнопку "Ввод!".


*Определитесь, кто Вы:
робот инопланетянин человек

Внимание! Время в таблицах - всемирное. Для получения местного времени необходимо прибавить поправку, которая равна 5 ч.

Смотрите также архив погоды в соседних городах и на ближайших метеорологических станциях:

Погода в Усть-Каре (Ненецкий АО, Россия) (89 км)
Погода в Амдерме (Ненецкий АО, Россия) (197 км)
Погода в Сеяхе (Ямало-Ненецкий АО, Россия) (224 км)
Погода на Мысе Белый Нос (Ненецкий АО, Россия) (255 км)
Погода в Тамбее (Ямало-Ненецкий АО, Россия) (270 км)
Погода в Воркуте (Коми, Россия) (273 км)
Погода в Имени Федорова (Ненецкий АО, Россия) (304 км)
Погода в Елецкой (Коми, Россия) (316 км)
Погода в Белоярске (Ямало-Ненецкий АО, Россия) (321 км)
Погода в Харпе (Ямало-Ненецкий АО, Россия) (326 км)

Пояснения к столбцам:

Ветер - указаны скорость ветра в м/с - средняя за 10 мин, порывы в срок и между сроками (в фигурных скобках) и направление, откуда дует ветер: С - северный, СВ - северо-восточный, В - восточный, ЮВ - юго-восточный, Ю - южный, ЮЗ - юго-западный, З - западный, СЗ - северо-западный.
Видимость - горизонтальная дальность видимости в метрах или километрах. При видимости от 1 до 10 км при отсутствии осадков обычно наблюдается дымка, при ухудшении видимости до 1 км и менее - туман. В сухую погоду видимость может ухудшаться дымом, пылью или мглою.
Явления - указаны атмосферные явления, наблюдавшиеся в срок или в последний час перед сроком; фигурными скобками обозначены явления, наблюдавшиеся между сроками (за 1-3 часа до срока); квадратными скобками обозначены град или гололедные отложения с указанием их диаметра в мм.
Облачность - указаны через наклонную черту общая и нижняя облачность в баллах и высота нижней границы облаков в метрах; квадратными скобками обозначены формы облаков: Ci - перистые, Cs - перисто-слоистые, Cc - перисто-кучевые, Ac - высококучевые, As - высокослоистые, Sc - слоисто-кучевые, Ns - слоисто-дождевые, Cu - кучевые, Cb - кучево-дождевые. Подробнее классификацию облаков см. в Атласе облаков (PDF).
T - Температура воздуха - температура, измеренная на высоте 2 м над землей.
Td - Температура точки росы - температура, при понижении до которой содержащийся в воздухе водяной пар достигнет насыщения.
f - Относительная влажность воздуха - влажноcть воздуха, измеренная на высоте 2 м над землей.
Te - Эффективная температура - температура, которую ощущает одетый по сезону человек в тени. Характеристика душности погоды. При расчете учитывается влияние влажности воздуха и скорости ветра на теплоощущения человека.
Tes - Эффективная температура на солнце - температура, которую ощущает человек, с поправкой на солнечный нагрев. Характеристика знойности погоды. Зависит от высоты солнца над горизонтом, облачности и скорости ветра. Ночью, в пасмурную погоду, а также при ветре 12 м/с и более поправка равна нулю.
P - Атмосферное давление - приведенное к уровню моря атмосферное давление.
Po - Атмосферное давление - измеренное на уровне метеостанции атмосферное давление.
Tmin - Минимальная температура - минимум температуры воздуха на высоте 2 м над землей.
Tmax - Максимальная температура - максимум температуры воздуха на высоте 2 м над землей.
R - Количество осадков - Количество выпавших осадков за период времени, мм. При наведении курсора мыши на число - период времени, за который выпало указанное количество осадков.
R24 - Количество осадков - Количество выпавших осадков за 24 часа, мм.
S - Снежный покров - Высота снежного покрова, см. При наведении курсора мыши на число - состояние снежного покрова и степень покрытия местности в баллах.